SL-12 DEB, 44982

Orbit data source: Space-Track

SL-12 DEB, 44982 is space debris in HEO originally from a launch on Mon, 25 Dec 2006 UTC launched from the Tyuratam Missile And Space Complex (TTMTR). Debris objects in space refer to the collection of defunct objects orbiting the Earth. Examples of debris include non-operational satellites, rocket bodies, and fragments generated from explosions, collisions, or faulty payload assembly.

Loading next visibility...
Identifier
44982, 2006-062S
Orbit
HEO
Country
Flag of CISCIS
Related business
Manufacturer
RKKE
Mission
Spacecraft
Bus & Motor
Unknown
Mass
Unknown
Launch date (UTC)
2006-12-25 (19 years ago)
Launch vehicle
Unknown
Launch site
Tyuratam Missile And Space Complex (TTMTR)
Object type
Payload
Rocket body
Debris
Shape & HBR
Unknown shape, 0.6 m
Radar Cross Section
Medium (>0.1 m² and <1 m²)

Expand to show TLE details & history
Last TLE update: 2 weeks ago

TLE from 2 weeks ago
0 SL-12 DEB
1 44982U 06062S   25279.48686432  .00000099  00000-0  61411-3 0  9991
2 44982  64.9509  92.0964 5536545 280.4562  24.5316  4.28194579 92698
Epoch: 2025-10-06T11:41Z
TLE epoch observation values (Epoch: 2025-10-06T11:41:05.077Z)
Latitude
-0.00002°
Longitude
-98.57681°
Altitude
3,721.557 km
Speed
7.353 km/s
True Right ascension
06h 08m 20s
True Declination
0° 00' 00"
Sunlit
Object was in daylight at epoch
Visualization orbit readout
Latitude
Unknown
Longitude
Unknown
Altitude
Unknown
Speed
Unknown
Apparent Right ascension
Unknown
Apparent Declination
Unknown
Sunlit
N/A
Visualization observer readout
Local Sidereal Time
04:26:44
Azimuth
Unknown
Elevation
Unknown
Doppler factor
Unknown
Orbital elements
Apogee altitude
18,508.485 km
Perigee altitude
771.478 km
Semi-major axis
16,018.119 km
Eccentricity
0.55365
Inclination
64.9509°
RAAN
92.0964°
Arg. of periapsis
280.4562°
True anomaly
79.65196°
Mean anomaly
24.5316°
Eccentric anomaly
48.16772°
Mean motion
1.0706 °/min
Orbital period
336.26 mins
BSTAR
0.00061411
Loading maneuver chart data...
Computing Atmospheric mass density...
Loading historical data...
Loading historical data...
Loading historical data...
Loading historical data...
Loading historical data...
Loading historical data...
Loading historical data...

Documentation

Showing up to 5 results
|